GFSGBSN_prec_precacc12_201.txt.gz
Total_Precipitation_Accumulation
0.01 0.03 0.11 0.18 0.19 0.20 0.19 0.16 0.13 0.10 0.09 0.07 0.06 0.04 0.03 0.02 0.01 0.00 0.00 0.00 0.00 0.00 0.00 0.00 0.00 0.00 0.00 0.00 0.00 0.00 0.00 0.00 0.00 0.00 0.00 0.00 0.00 0.00 0.00 0.00 0.00 0.00 0.00 0.00 0.00 0.00 0.00
0.02 0.02 0.04 0.11 0.21 0.27 0.31 0.33 0.28 0.22 0.16 0.10 0.07 0.06 0.06 0.04 0.03 0.01 0.00 0.00 0.00 0.00 0.00 0.00 0.00 0.00 0.00 0.00 0.00 0.00 0.00 0.00 0.00 0.00 0.00 0.00 0.00 0.00 0.00 0.00 0.00 0.00 0.00 0.00 0.00 0.00 0.00
0.03 0.03 0.05 0.08 0.13 0.25 0.35 0.36 0.37 0.37 0.32 0.28 0.21 0.16 0.12 0.11 0.08 0.04 0.01 0.00 0.00 0.00 0.00 0.00 0.00 0.00 0.00 0.00 0.00 0.00 0.00 0.00 0.00 0.00 0.00 0.00 0.00 0.00 0.00 0.00 0.00 0.00 0.00 0.00 0.00 0.00 0.00
0.02 0.02 0.03 0.09 0.13 0.20 0.29 0.36 0.40 0.35 0.35 0.28 0.27 0.22 0.23 0.19 0.17 0.15 0.08 0.03 0.00 0.00 0.00 0.00 0.00 0.00 0.00 0.00 0.00 0.00 0.00 0.00 0.00 0.00 0.00 0.00 0.00 0.00 0.00 0.00 0.00 0.00 0.00 0.00 0.00 0.00 0.00
0.03 0.02 0.02 0.04 0.09 0.15 0.24 0.31 0.43 0.50 0.43 0.41 0.38 0.36 0.25 0.25 0.21 0.19 0.18 0.13 0.06 0.00 0.00 0.00 0.00 0.00 0.00 0.00 0.00 0.00 0.00 0.00 0.00 0.00 0.00 0.00 0.00 0.00 0.00 0.00 0.00 0.00 0.00 0.00 0.00 0.00 0.00
0.04 0.04 0.03 0.03 0.02 0.03 0.08 0.16 0.24 0.36 0.49 0.42 0.42 0.42 0.47 0.37 0.33 0.28 0.27 0.30 0.27 0.11 0.02 0.02 0.01 0.00 0.00 0.00 0.00 0.00 0.00 0.00 0.00 0.00 0.00 0.00 0.00 0.00 0.00 0.00 0.00 0.00 0.00 0.00 0.00 0.00 0.00
0.07 0.05 0.03 0.02 0.03 0.04 0.06 0.10 0.15 0.24 0.42 0.59 0.50 0.45 0.45 0.47 0.55 0.57 0.62 0.80 0.83 0.46 0.08 0.01 0.00 0.00 0.00 0.00 0.00 0.00 0.00 0.00 0.00 0.00 0.00 0.00 0.00 0.00 0.00 0.00 0.00 0.00 0.00 0.00 0.00 0.00 0.00
0.06 0.05 0.03 0.03 0.03 0.03 0.07 0.13 0.15 0.18 0.26 0.47 0.76 0.76 0.61 0.60 0.73 0.94 0.97 0.90 0.53 0.16 0.07 0.01 0.00 0.00 0.00 0.00 0.00 0.00 0.00 0.00 0.00 0.00 0.00 0.00 0.00 0.00 0.00 0.00 0.00 0.00 0.00 0.00 0.00 0.00 0.00
0.05 0.06 0.04 0.02 0.02 0.02 0.03 0.09 0.14 0.15 0.13 0.21 0.43 0.73 0.99 0.94 1.08 1.39 1.37 0.78 0.25 0.17 0.17 0.03 0.00 0.00 0.00 0.00 0.00 0.00 0.00 0.00 0.00 0.00 0.00 0.00 0.00 0.00 0.00 0.00 0.00 0.00 0.00 0.00 0.00 0.00 0.00
0.07 0.06 0.03 0.01 0.01 0.01 0.01 0.02 0.05 0.10 0.17 0.19 0.25 0.43 0.82 1.43 2.04 1.60 1.40 0.55 0.33 0.45 0.57 0.16 0.00 0.00 0.00 0.00 0.00 0.00 0.00 0.00 0.00 0.00 0.00 0.00 0.00 0.00 0.00 0.00 0.00 0.00 0.00 0.00 0.00 0.00 0.00
0.05 0.08 0.07 0.04 0.02 0.01 0.01 0.02 0.03 0.04 0.08 0.14 0.24 0.48 0.81 1.46 1.56 1.25 0.82 0.38 0.60 1.07 1.55 0.31 0.01 0.00 0.00 0.00 0.00 0.00 0.00 0.00 0.00 0.00 0.00 0.00 0.00 0.00 0.00 0.00 0.00 0.00 0.00 0.00 0.00 0.00 0.00
0.08 0.05 0.05 0.05 0.04 0.03 0.01 0.01 0.00 0.01 0.08 0.10 0.14 0.34 0.84 1.27 1.47 0.84 0.38 0.66 1.53 2.74 2.22 0.20 0.00 0.00 0.00 0.00 0.00 0.00 0.00 0.00 0.00 0.00 0.00 0.00 0.00 0.00 0.00 0.00 0.00 0.00 0.00 0.00 0.00 0.00 0.00
0.03 0.02 0.03 0.03 0.02 0.01 0.01 0.01 0.01 0.01 0.02 0.09 0.14 0.27 0.71 0.90 1.34 0.95 0.98 1.91 3.51 3.62 1.37 0.14 0.00 0.00 0.00 0.00 0.00 0.00 0.00 0.00 0.00 0.00 0.00 0.00 0.00 0.00 0.00 0.00 0.00 0.00 0.00 0.01 0.01 0.00 0.00
0.04 0.05 0.04 0.03 0.02 0.02 0.03 0.03 0.04 0.04 0.03 0.04 0.11 0.25 0.67 0.75 0.71 1.17 1.87 2.86 3.59 2.44 0.71 0.03 0.00 0.00 0.00 0.00 0.00 0.00 0.00 0.00 0.00 0.00 0.00 0.00 0.00 0.00 0.00 0.00 0.00 0.00 0.00 0.01 0.02 0.00 0.00
0.05 0.04 0.03 0.02 0.02 0.02 0.02 0.03 0.03 0.02 0.02 0.02 0.09 0.26 0.65 0.85 0.99 1.62 2.69 3.77 3.03 1.23 0.18 0.00 0.01 0.01 0.00 0.00 0.00 0.00 0.00 0.00 0.00 0.00 0.00 0.00 0.00 0.00 0.00 0.00 0.00 0.00 0.00 0.00 0.01 0.05 0.06
0.07 0.05 0.05 0.04 0.03 0.03 0.03 0.03 0.03 0.04 0.04 0.08 0.11 0.24 0.53 0.62 1.11 1.85 2.65 3.14 2.03 0.48 0.01 0.00 0.02 0.01 0.00 0.00 0.00 0.00 0.00 0.00 0.00 0.00 0.00 0.00 0.00 0.00 0.00 0.00 0.00 0.00 0.00 0.01 0.11 0.13 0.06
0.05 0.04 0.04 0.05 0.05 0.04 0.03 0.03 0.04 0.03 0.06 0.16 0.19 0.32 0.37 0.46 1.24 2.22 2.82 2.37 1.28 0.28 0.03 0.01 0.01 0.01 0.00 0.00 0.00 0.00 0.00 0.00 0.00 0.00 0.00 0.00 0.01 0.01 0.00 0.00 0.00 0.00 0.00 0.00 0.01 0.00 0.00
0.03 0.04 0.04 0.06 0.06 0.06 0.06 0.06 0.09 0.10 0.14 0.28 0.30 0.45 0.32 0.47 1.43 2.18 2.27 1.59 0.73 0.18 0.14 0.20 0.12 0.03 0.01 0.00 0.00 0.00 0.00 0.00 0.00 0.00 0.00 0.00 0.03 0.04 0.01 0.00 0.00 0.00 0.00 0.00 0.00 0.00 0.00
0.03 0.04 0.05 0.08 0.11 0.12 0.11 0.11 0.15 0.25 0.32 0.31 0.49 0.24 0.31 0.57 1.21 1.43 1.34 1.22 0.66 0.21 0.23 0.41 0.25 0.03 0.02 0.02 0.06 0.02 0.01 0.01 0.00 0.00 0.00 0.00 0.11 0.23 0.25 0.09 0.00 0.00 0.00 0.00 0.00 0.00 0.00
0.08 0.08 0.08 0.09 0.16 0.21 0.18 0.14 0.12 0.19 0.38 0.55 0.71 0.47 0.46 0.81 0.79 0.69 0.69 0.81 0.72 0.33 0.13 0.27 0.19 0.02 0.02 0.16 0.24 0.09 0.01 0.01 0.00 0.00 0.00 0.00 0.02 0.04 0.08 0.04 0.00 0.00 0.00 0.00 0.00 0.00 0.00
0.08 0.07 0.08 0.13 0.37 0.37 0.31 0.33 0.21 0.23 0.36 1.04 1.24 0.64 0.35 0.61 0.78 0.69 0.44 0.39 0.30 0.31 0.27 0.13 0.21 0.07 0.05 0.30 0.37 0.18 0.06 0.03 0.03 0.01 0.00 0.01 0.07 0.06 0.09 0.04 0.03 0.00 0.00 0.00 0.00 0.00 0.00
0.08 0.06 0.06 0.29 0.53 0.34 0.50 0.61 0.43 0.29 0.60 1.34 1.04 0.48 0.22 0.05 0.17 0.31 0.39 0.44 0.16 0.14 0.23 0.17 0.11 0.09 0.05 0.11 0.14 0.16 0.08 0.04 0.06 0.03 0.03 0.06 0.18 0.13 0.15 0.13 0.12 0.05 0.01 0.01 0.00 0.00 0.00
0.05 0.04 0.05 0.28 0.45 0.35 0.62 0.75 0.65 0.42 0.62 1.33 0.54 0.17 0.17 0.09 0.03 0.12 0.21 0.21 0.11 0.06 0.13 0.08 0.04 0.06 0.14 0.11 0.09 0.12 0.12 0.17 0.11 0.06 0.09 0.13 0.24 0.25 0.29 0.26 0.24 0.28 0.04 0.00 0.00 0.00 0.00
0.04 0.03 0.04 0.17 0.37 0.44 0.66 0.86 0.91 0.55 0.46 0.68 0.26 0.08 0.37 0.38 0.06 0.07 0.06 0.04 0.03 0.02 0.07 0.16 0.13 0.18 0.39 0.31 0.33 0.45 0.52 0.55 0.56 0.51 0.29 0.27 0.29 0.43 0.47 0.33 0.33 0.16 0.01 0.00 0.00 0.00 0.00
0.04 0.02 0.04 0.10 0.29 0.44 0.68 0.78 1.03 1.00 0.56 0.60 0.40 0.11 0.21 0.42 0.22 0.12 0.06 0.05 0.07 0.11 0.17 0.22 0.24 0.24 0.32 0.20 0.42 0.96 1.13 1.02 0.94 0.80 0.66 0.47 0.33 0.44 0.48 0.29 0.08 0.01 0.00 0.00 0.00 0.00 0.00
0.03 0.02 0.06 0.05 0.19 0.36 0.61 0.71 0.85 1.17 0.98 0.79 0.62 0.19 0.18 0.34 0.28 0.12 0.06 0.04 0.18 0.36 0.62 0.54 0.33 0.33 0.27 0.34 0.69 0.88 0.73 0.50 0.42 0.40 0.45 0.47 0.50 0.50 0.59 0.31 0.13 0.01 0.00 0.00 0.00 0.00 0.00
0.03 0.05 0.02 0.01 0.08 0.24 0.49 0.62 0.68 0.91 0.80 0.92 0.76 0.24 0.21 0.43 0.31 0.12 0.20 0.24 0.21 0.20 0.44 0.53 0.62 0.68 0.48 0.50 0.72 0.71 0.51 0.21 0.13 0.08 0.20 0.26 0.33 0.39 0.39 0.22 0.06 0.00 0.00 0.00 0.01 0.01 0.00
0.03 0.01 0.00 0.01 0.02 0.11 0.36 0.49 0.51 0.50 0.60 0.58 0.87 0.32 0.30 0.43 0.47 0.21 0.15 0.16 0.16 0.11 0.25 0.43 0.31 0.45 0.47 0.39 0.43 0.47 0.33 0.20 0.07 0.04 0.02 0.05 0.09 0.17 0.20 0.19 0.06 0.00 0.00 0.00 0.00 0.00 0.00
0.00 0.00 0.00 0.02 0.02 0.07 0.23 0.36 0.40 0.38 0.51 0.28 0.60 0.58 0.42 0.39 0.46 0.22 0.18 0.10 0.05 0.04 0.03 0.07 0.10 0.13 0.14 0.18 0.19 0.19 0.12 0.07 0.03 0.08 0.04 0.02 0.00 0.01 0.02 0.03 0.01 0.00 0.00 0.00 0.00 0.00 0.00

GFSGBSN_prec_precacc12_204.txt.gz
Total_Precipitation_Accumulation
0.01 0.01 0.01 0.00 0.01 0.07 0.10 0.10 0.12 0.10 0.09 0.07 0.06 0.05 0.03 0.02 0.03 0.03 0.02 0.00 0.00 0.00 0.00 0.00 0.00 0.00 0.00 0.00 0.00 0.00 0.00 0.00 0.00 0.00 0.00 0.00 0.00 0.00 0.00 0.00 0.00 0.00 0.00 0.00 0.00 0.00 0.00
0.02 0.01 0.01 0.01 0.01 0.03 0.11 0.16 0.15 0.18 0.15 0.10 0.07 0.06 0.06 0.04 0.03 0.04 0.04 0.02 0.01 0.00 0.00 0.00 0.00 0.00 0.00 0.00 0.00 0.00 0.00 0.00 0.00 0.00 0.00 0.00 0.00 0.00 0.00 0.00 0.00 0.00 0.00 0.00 0.00 0.00 0.00
0.03 0.02 0.02 0.01 0.01 0.01 0.05 0.14 0.19 0.23 0.26 0.27 0.21 0.16 0.12 0.11 0.08 0.06 0.05 0.03 0.02 0.02 0.00 0.00 0.00 0.00 0.00 0.00 0.00 0.00 0.00 0.00 0.00 0.00 0.00 0.00 0.00 0.00 0.00 0.00 0.00 0.00 0.00 0.00 0.00 0.00 0.00
0.03 0.02 0.02 0.02 0.01 0.01 0.01 0.07 0.17 0.21 0.28 0.25 0.27 0.22 0.23 0.19 0.17 0.15 0.10 0.07 0.07 0.07 0.04 0.00 0.00 0.00 0.00 0.00 0.00 0.00 0.00 0.00 0.00 0.00 0.00 0.00 0.00 0.00 0.00 0.00 0.00 0.00 0.00 0.00 0.00 0.00 0.00
0.04 0.04 0.04 0.04 0.03 0.01 0.01 0.03 0.12 0.24 0.26 0.31 0.33 0.36 0.25 0.25 0.21 0.20 0.19 0.15 0.14 0.19 0.21 0.05 0.00 0.00 0.00 0.00 0.00 0.00 0.00 0.00 0.00 0.00 0.00 0.00 0.00 0.00 0.00 0.00 0.00 0.00 0.00 0.00 0.00 0.00 0.00
0.06 0.06 0.06 0.06 0.05 0.03 0.01 0.01 0.03 0.10 0.23 0.30 0.33 0.37 0.46 0.37 0.33 0.29 0.28 0.32 0.33 0.46 0.51 0.23 0.03 0.01 0.00 0.00 0.00 0.00 0.00 0.00 0.00 0.00 0.00 0.00 0.00 0.00 0.00 0.00 0.00 0.00 0.00 0.00 0.00 0.00 0.00
0.08 0.08 0.07 0.06 0.05 0.05 0.05 0.04 0.04 0.06 0.12 0.22 0.32 0.33 0.39 0.46 0.55 0.57 0.63 0.84 0.93 0.86 0.62 0.22 0.02 0.00 0.00 0.00 0.00 0.00 0.00 0.00 0.00 0.00 0.00 0.00 0.00 0.00 0.00 0.00 0.00 0.00 0.00 0.00 0.00 0.00 0.00
0.07 0.07 0.06 0.06 0.05 0.04 0.04 0.04 0.05 0.04 0.09 0.14 0.25 0.38 0.43 0.53 0.73 0.95 1.00 0.96 0.56 0.28 0.27 0.07 0.00 0.00 0.00 0.00 0.00 0.00 0.00 0.00 0.00 0.00 0.00 0.00 0.00 0.00 0.00 0.00 0.00 0.00 0.00 0.00 0.00 0.00 0.00
0.04 0.07 0.08 0.06 0.04 0.03 0.03 0.03 0.03 0.03 0.03 0.08 0.16 0.26 0.46 0.66 1.00 1.39 1.39 0.80 0.30 0.22 0.30 0.17 0.03 0.00 0.00 0.00 0.00 0.00 0.00 0.00 0.00 0.00 0.00 0.00 0.00 0.00 0.00 0.00 0.00 0.00 0.00 0.00 0.00 0.00 0.00
0.06 0.07 0.06 0.06 0.04 0.02 0.01 0.00 0.00 0.00 0.02 0.07 0.12 0.17 0.29 0.69 1.58 1.56 1.40 0.57 0.42 0.51 0.79 0.35 0.04 0.01 0.00 0.00 0.00 0.00 0.00 0.00 0.00 0.00 0.00 0.00 0.00 0.00 0.00 0.00 0.00 0.00 0.00 0.00 0.00 0.00 0.00
0.07 0.10 0.12 0.11 0.07 0.04 0.02 0.01 0.00 0.00 0.01 0.04 0.12 0.24 0.36 0.73 1.07 1.11 0.81 0.43 0.79 1.33 1.72 0.38 0.02 0.00 0.00 0.00 0.00 0.00 0.00 0.00 0.00 0.00 0.00 0.00 0.00 0.00 0.00 0.00 0.00 0.00 0.00 0.00 0.00 0.00 0.00
0.15 0.12 0.12 0.12 0.09 0.07 0.06 0.03 0.01 0.00 0.00 0.02 0.05 0.11 0.33 0.67 0.99 0.63 0.35 0.68 1.75 3.16 2.21 0.20 0.00 0.00 0.00 0.00 0.00 0.00 0.00 0.00 0.00 0.00 0.00 0.00 0.00 0.00 0.00 0.00 0.00 0.00 0.00 0.00 0.00 0.00 0.00
0.06 0.06 0.07 0.07 0.07 0.09 0.06 0.05 0.03 0.02 0.01 0.01 0.03 0.09 0.24 0.47 0.74 0.62 0.77 1.71 3.39 3.45 1.39 0.20 0.01 0.00 0.00 0.00 0.00 0.00 0.00 0.00 0.00 0.00 0.00 0.00 0.00 0.00 0.00 0.00 0.00 0.00 0.00 0.01 0.01 0.00 0.00
0.05 0.07 0.06 0.07 0.07 0.07 0.06 0.05 0.05 0.06 0.06 0.05 0.06 0.12 0.25 0.37 0.38 0.80 1.63 2.81 3.11 2.02 0.77 0.08 0.00 0.00 0.00 0.00 0.00 0.00 0.00 0.00 0.00 0.00 0.00 0.00 0.00 0.00 0.00 0.00 0.00 0.00 0.00 0.01 0.02 0.00 0.00
0.07 0.05 0.03 0.02 0.03 0.03 0.04 0.04 0.05 0.04 0.04 0.03 0.07 0.08 0.17 0.28 0.45 0.99 2.29 3.36 2.53 1.02 0.24 0.06 0.01 0.02 0.00 0.00 0.00 0.00 0.00 0.02 0.00 0.00 0.00 0.00 0.00 0.00 0.00 0.00 0.00 0.00 0.00 0.00 0.01 0.05 0.06
0.10 0.07 0.07 0.05 0.05 0.05 0.05 0.04 0.04 0.06 0.07 0.15 0.11 0.05 0.12 0.12 0.43 1.21 2.17 2.54 1.61 0.48 0.09 0.02 0.06 0.03 0.00 0.00 0.00 0.00 0.00 0.00 0.00 0.00 0.00 0.00 0.00 0.00 0.00 0.00 0.00 0.00 0.00 0.01 0.11 0.13 0.06
0.08 0.06 0.05 0.06 0.05 0.03 0.03 0.03 0.04 0.03 0.07 0.21 0.20 0.15 0.05 0.06 0.47 1.55 2.05 1.68 0.90 0.23 0.17 0.16 0.05 0.07 0.03 0.00 0.00 0.00 0.00 0.00 0.00 0.00 0.00 0.00 0.01 0.00 0.00 0.00 0.00 0.00 0.00 0.00 0.01 0.00 0.00
0.03 0.04 0.03 0.03 0.03 0.03 0.04 0.05 0.07 0.10 0.18 0.34 0.29 0.29 0.04 0.08 0.61 1.33 1.51 1.05 0.45 0.08 0.14 0.32 0.20 0.11 0.04 0.01 0.00 0.00 0.00 0.00 0.00 0.00 0.00 0.00 0.02 0.01 0.00 0.00 0.00 0.00 0.00 0.00 0.00 0.00 0.00
0.03 0.04 0.03 0.04 0.05 0.06 0.05 0.05 0.09 0.12 0.29 0.31 0.38 0.14 0.10 0.33 0.62 0.75 0.80 0.76 0.32 0.05 0.09 0.48 0.38 0.13 0.08 0.03 0.04 0.01 0.00 0.00 0.00 0.00 0.00 0.00 0.10 0.13 0.12 0.05 0.00 0.00 0.00 0.00 0.00 0.00 0.00
0.09 0.10 0.10 0.09 0.08 0.09 0.12 0.13 0.12 0.19 0.34 0.49 0.52 0.30 0.17 0.29 0.37 0.38 0.46 0.53 0.43 0.13 0.02 0.21 0.28 0.12 0.18 0.22 0.16 0.06 0.00 0.00 0.00 0.00 0.00 0.00 0.01 0.03 0.05 0.02 0.00 0.00 0.00 0.00 0.00 0.00 0.00
0.09 0.08 0.09 0.07 0.08 0.10 0.14 0.18 0.20 0.27 0.45 0.90 1.18 0.45 0.10 0.24 0.25 0.30 0.37 0.36 0.22 0.19 0.12 0.05 0.16 0.15 0.14 0.37 0.34 0.12 0.02 0.00 0.00 0.00 0.00 0.02 0.13 0.05 0.03 0.03 0.03 0.00 0.00 0.00 0.00 0.00 0.00
0.08 0.08 0.05 0.04 0.09 0.08 0.08 0.15 0.22 0.30 0.69 1.33 1.02 0.35 0.15 0.04 0.08 0.15 0.24 0.31 0.12 0.09 0.14 0.12 0.10 0.08 0.10 0.20 0.18 0.16 0.04 0.00 0.00 0.00 0.02 0.10 0.27 0.10 0.13 0.13 0.11 0.05 0.01 0.01 0.00 0.00 0.00
0.05 0.05 0.06 0.07 0.07 0.06 0.16 0.21 0.27 0.34 0.71 1.39 0.58 0.19 0.23 0.17 0.04 0.09 0.14 0.16 0.06 0.03 0.04 0.04 0.02 0.00 0.05 0.10 0.07 0.12 0.09 0.10 0.05 0.02 0.05 0.20 0.47 0.38 0.34 0.26 0.24 0.32 0.06 0.00 0.00 0.00 0.00
0.04 0.05 0.06 0.06 0.07 0.12 0.24 0.34 0.39 0.38 0.51 0.70 0.31 0.11 0.46 0.42 0.08 0.05 0.04 0.03 0.01 0.01 0.01 0.01 0.01 0.02 0.12 0.14 0.19 0.35 0.49 0.50 0.50 0.49 0.29 0.33 0.45 0.75 0.79 0.47 0.52 0.31 0.02 0.00 0.00 0.00 0.00
0.05 0.05 0.05 0.07 0.14 0.17 0.30 0.39 0.48 0.57 0.44 0.64 0.48 0.18 0.27 0.33 0.10 0.01 0.01 0.01 0.01 0.02 0.02 0.01 0.01 0.07 0.15 0.09 0.33 1.00 1.27 1.07 0.91 0.83 0.78 0.59 0.46 0.72 0.73 0.55 0.29 0.05 0.00 0.00 0.00 0.00 0.00
0.04 0.04 0.10 0.07 0.06 0.14 0.29 0.41 0.51 0.77 0.66 0.73 0.70 0.29 0.23 0.33 0.15 0.03 0.01 0.00 0.03 0.08 0.23 0.16 0.09 0.18 0.24 0.38 0.77 0.99 0.87 0.61 0.47 0.42 0.48 0.54 0.71 0.88 0.98 0.55 0.24 0.02 0.00 0.00 0.00 0.04 0.00
0.04 0.06 0.02 0.01 0.03 0.11 0.30 0.44 0.54 0.77 0.66 0.86 0.81 0.31 0.35 0.42 0.11 0.04 0.08 0.02 0.01 0.03 0.20 0.32 0.44 0.61 0.50 0.60 0.90 0.86 0.61 0.23 0.15 0.10 0.22 0.32 0.44 0.60 0.69 0.43 0.13 0.00 0.00 0.00 0.01 0.02 0.00
0.03 0.01 0.01 0.01 0.03 0.09 0.29 0.40 0.47 0.48 0.57 0.63 0.92 0.30 0.58 0.48 0.15 0.03 0.04 0.03 0.04 0.06 0.15 0.32 0.28 0.47 0.56 0.53 0.67 0.63 0.49 0.28 0.10 0.05 0.02 0.06 0.10 0.22 0.30 0.27 0.08 0.00 0.00 0.00 0.00 0.00 0.00
0.01 0.01 0.01 0.01 0.03 0.08 0.23 0.35 0.39 0.39 0.55 0.35 0.66 0.59 0.61 0.62 0.38 0.07 0.04 0.03 0.02 0.03 0.02 0.07 0.11 0.18 0.23 0.31 0.31 0.34 0.24 0.15 0.11 0.12 0.05 0.02 0.00 0.01 0.03 0.04 0.01 0.00 0.00 0.00 0.00 0.00 0.00

GFSGBSN_prec_precacc12_210.txt.gz
Total_Precipitation_Accumulation
0.01 0.01 0.02 0.01 0.01 0.01 0.01 0.00 0.00 0.00 0.00 0.00 0.00 0.02 0.02 0.02 0.03 0.03 0.02 0.01 0.01 0.01 0.01 0.00 0.00 0.00 0.00 0.00 0.00 0.00 0.00 0.00 0.00 0.00 0.00 0.00 0.00 0.00 0.00 0.00 0.00 0.00 0.00 0.00 0.00 0.00 0.00
0.02 0.02 0.02 0.03 0.04 0.04 0.02 0.01 0.01 0.00 0.00 0.00 0.00 0.01 0.03 0.04 0.03 0.04 0.04 0.03 0.02 0.02 0.02 0.03 0.01 0.00 0.00 0.00 0.00 0.00 0.00 0.00 0.00 0.00 0.00 0.00 0.00 0.00 0.00 0.00 0.00 0.00 0.00 0.00 0.00 0.00 0.00
0.02 0.03 0.03 0.02 0.02 0.02 0.03 0.03 0.02 0.01 0.00 0.00 0.00 0.00 0.01 0.06 0.08 0.06 0.05 0.03 0.04 0.08 0.10 0.12 0.09 0.01 0.00 0.00 0.00 0.00 0.00 0.00 0.00 0.00 0.00 0.00 0.00 0.00 0.00 0.00 0.00 0.00 0.00 0.00 0.00 0.00 0.00
0.02 0.02 0.02 0.02 0.02 0.02 0.03 0.03 0.03 0.01 0.00 0.00 0.00 0.00 0.01 0.04 0.10 0.14 0.10 0.08 0.08 0.08 0.14 0.25 0.24 0.04 0.00 0.00 0.00 0.00 0.00 0.00 0.00 0.00 0.00 0.00 0.00 0.00 0.00 0.00 0.00 0.00 0.00 0.00 0.00 0.00 0.00
0.03 0.03 0.03 0.03 0.03 0.03 0.03 0.03 0.04 0.03 0.02 0.00 0.00 0.00 0.00 0.01 0.06 0.13 0.18 0.15 0.14 0.20 0.29 0.30 0.34 0.15 0.01 0.00 0.00 0.00 0.00 0.00 0.00 0.00 0.00 0.00 0.00 0.00 0.00 0.00 0.00 0.00 0.00 0.00 0.00 0.00 0.00
0.05 0.05 0.05 0.05 0.06 0.05 0.03 0.03 0.04 0.04 0.03 0.02 0.02 0.01 0.01 0.02 0.04 0.09 0.22 0.32 0.33 0.47 0.58 0.63 0.43 0.13 0.01 0.00 0.00 0.00 0.00 0.00 0.00 0.00 0.00 0.00 0.00 0.00 0.00 0.00 0.00 0.00 0.00 0.00 0.00 0.00 0.00
0.05 0.06 0.06 0.06 0.07 0.08 0.08 0.10 0.13 0.09 0.05 0.04 0.03 0.02 0.01 0.02 0.03 0.06 0.25 0.77 0.91 0.86 0.67 0.33 0.16 0.04 0.00 0.00 0.00 0.00 0.00 0.00 0.00 0.00 0.00 0.00 0.00 0.00 0.00 0.00 0.00 0.00 0.00 0.00 0.00 0.00 0.00
0.07 0.07 0.07 0.07 0.06 0.07 0.07 0.11 0.11 0.08 0.04 0.02 0.03 0.02 0.03 0.02 0.05 0.10 0.28 0.64 0.57 0.31 0.31 0.09 0.01 0.00 0.00 0.00 0.00 0.00 0.00 0.00 0.00 0.00 0.00 0.00 0.00 0.00 0.00 0.00 0.00 0.00 0.00 0.00 0.00 0.00 0.00
0.06 0.08 0.08 0.06 0.06 0.07 0.12 0.14 0.11 0.08 0.05 0.03 0.03 0.03 0.03 0.01 0.01 0.12 0.31 0.37 0.28 0.26 0.39 0.20 0.05 0.01 0.00 0.00 0.00 0.00 0.00 0.00 0.00 0.00 0.00 0.00 0.00 0.00 0.00 0.00 0.00 0.00 0.00 0.00 0.00 0.00 0.00
0.07 0.07 0.07 0.07 0.11 0.14 0.14 0.12 0.08 0.04 0.04 0.03 0.02 0.02 0.02 0.01 0.03 0.06 0.23 0.25 0.34 0.58 0.85 0.38 0.06 0.03 0.01 0.00 0.00 0.00 0.00 0.00 0.00 0.00 0.00 0.00 0.00 0.00 0.00 0.00 0.00 0.00 0.00 0.00 0.00 0.00 0.00
0.06 0.10 0.15 0.18 0.17 0.12 0.07 0.05 0.06 0.05 0.02 0.02 0.01 0.01 0.02 0.03 0.04 0.05 0.08 0.19 0.52 1.25 1.31 0.30 0.02 0.00 0.00 0.01 0.01 0.00 0.00 0.00 0.00 0.00 0.00 0.00 0.00 0.00 0.00 0.00 0.00 0.00 0.00 0.00 0.00 0.00 0.00
0.17 0.16 0.20 0.23 0.14 0.12 0.12 0.10 0.08 0.07 0.05 0.03 0.03 0.02 0.05 0.02 0.02 0.03 0.07 0.23 0.73 1.86 1.50 0.19 0.01 0.01 0.01 0.00 0.00 0.00 0.00 0.00 0.00 0.00 0.00 0.00 0.00 0.00 0.00 0.00 0.00 0.00 0.00 0.00 0.00 0.00 0.00
0.06 0.09 0.16 0.16 0.17 0.23 0.17 0.15 0.11 0.09 0.09 0.05 0.04 0.04 0.05 0.03 0.01 0.05 0.13 0.32 0.97 1.66 0.96 0.23 0.03 0.01 0.00 0.00 0.00 0.00 0.00 0.00 0.02 0.03 0.03 0.00 0.00 0.00 0.00 0.00 0.00 0.00 0.00 0.00 0.01 0.01 0.00
0.05 0.07 0.06 0.07 0.12 0.12 0.10 0.10 0.10 0.12 0.13 0.10 0.11 0.12 0.04 0.03 0.04 0.12 0.50 0.96 0.93 0.68 0.55 0.15 0.03 0.03 0.01 0.00 0.00 0.00 0.00 0.01 0.01 0.00 0.00 0.00 0.00 0.00 0.00 0.00 0.00 0.00 0.00 0.00 0.01 0.00 0.00
0.06 0.05 0.03 0.02 0.04 0.04 0.07 0.05 0.05 0.10 0.14 0.11 0.14 0.06 0.03 0.02 0.09 0.20 0.57 1.25 0.84 0.35 0.20 0.07 0.04 0.13 0.09 0.02 0.01 0.01 0.01 0.02 0.00 0.00 0.00 0.00 0.00 0.00 0.00 0.00 0.00 0.00 0.00 0.00 0.00 0.01 0.02
0.10 0.06 0.06 0.04 0.05 0.06 0.05 0.05 0.07 0.16 0.16 0.25 0.14 0.05 0.00 0.00 0.03 0.16 0.73 0.75 0.43 0.26 0.10 0.06 0.14 0.13 0.15 0.05 0.04 0.04 0.03 0.01 0.00 0.00 0.00 0.00 0.00 0.00 0.00 0.00 0.00 0.00 0.00 0.01 0.02 0.06 0.03
0.08 0.07 0.05 0.05 0.04 0.03 0.02 0.03 0.04 0.12 0.14 0.33 0.18 0.12 0.01 0.00 0.06 0.16 0.40 0.28 0.11 0.12 0.17 0.21 0.13 0.22 0.12 0.11 0.19 0.08 0.03 0.00 0.00 0.00 0.00 0.00 0.00 0.00 0.00 0.00 0.00 0.00 0.00 0.00 0.01 0.00 0.00
0.03 0.04 0.04 0.04 0.04 0.03 0.03 0.03 0.05 0.08 0.30 0.47 0.21 0.19 0.01 0.02 0.11 0.11 0.10 0.07 0.03 0.03 0.14 0.30 0.24 0.17 0.17 0.18 0.21 0.27 0.20 0.03 0.00 0.00 0.00 0.00 0.02 0.01 0.00 0.00 0.00 0.01 0.00 0.00 0.01 0.00 0.00
0.06 0.06 0.05 0.05 0.06 0.06 0.05 0.05 0.08 0.12 0.38 0.28 0.33 0.16 0.05 0.22 0.20 0.04 0.02 0.01 0.01 0.01 0.09 0.38 0.29 0.20 0.18 0.13 0.34 0.19 0.12 0.09 0.02 0.03 0.02 0.02 0.09 0.08 0.08 0.06 0.05 0.05 0.01 0.00 0.01 0.00 0.00
0.11 0.11 0.12 0.11 0.10 0.10 0.12 0.12 0.11 0.15 0.34 0.41 0.37 0.29 0.19 0.19 0.14 0.08 0.05 0.02 0.03 0.01 0.01 0.19 0.25 0.12 0.22 0.28 0.21 0.22 0.15 0.11 0.02 0.03 0.02 0.05 0.05 0.09 0.08 0.05 0.04 0.01 0.01 0.01 0.03 0.03 0.00
0.09 0.09 0.11 0.12 0.08 0.08 0.10 0.11 0.09 0.16 0.39 0.68 0.77 0.31 0.08 0.10 0.06 0.03 0.08 0.07 0.02 0.02 0.02 0.03 0.14 0.15 0.14 0.29 0.34 0.21 0.08 0.03 0.02 0.03 0.06 0.10 0.29 0.12 0.02 0.00 0.00 0.00 0.00 0.01 0.04 0.01 0.01
0.05 0.08 0.09 0.07 0.07 0.04 0.02 0.05 0.09 0.13 0.47 0.74 0.65 0.21 0.09 0.03 0.01 0.02 0.03 0.06 0.03 0.01 0.04 0.04 0.06 0.08 0.11 0.19 0.18 0.31 0.23 0.12 0.09 0.05 0.11 0.28 0.57 0.10 0.03 0.00 0.00 0.01 0.01 0.01 0.02 0.01 0.02
0.03 0.06 0.08 0.07 0.05 0.03 0.05 0.08 0.10 0.16 0.52 0.59 0.28 0.10 0.20 0.22 0.07 0.07 0.03 0.01 0.01 0.01 0.02 0.02 0.01 0.03 0.08 0.12 0.06 0.10 0.19 0.32 0.28 0.16 0.14 0.31 0.67 0.51 0.35 0.03 0.02 0.21 0.10 0.00 0.00 0.00 0.01
0.06 0.06 0.07 0.08 0.07 0.08 0.09 0.10 0.09 0.17 0.46 0.40 0.19 0.09 0.32 0.30 0.10 0.05 0.01 0.01 0.01 0.01 0.01 0.01 0.01 0.02 0.01 0.01 0.08 0.17 0.29 0.38 0.45 0.48 0.26 0.37 0.46 0.81 0.79 0.30 0.55 0.63 0.06 0.00 0.00 0.00 0.00
0.05 0.05 0.08 0.13 0.18 0.15 0.11 0.13 0.17 0.22 0.43 0.54 0.37 0.17 0.29 0.24 0.04 0.01 0.00 0.00 0.00 0.01 0.01 0.01 0.01 0.02 0.04 0.07 0.23 0.49 0.50 0.45 0.47 0.44 0.55 0.58 0.55 0.88 0.75 0.63 0.55 0.12 0.00 0.00 0.00 0.00 0.00
0.02 0.06 0.12 0.09 0.04 0.03 0.03 0.07 0.13 0.20 0.34 0.59 0.59 0.28 0.30 0.48 0.13 0.01 0.00 0.00 0.01 0.02 0.05 0.04 0.01 0.03 0.14 0.37 0.54 0.58 0.47 0.36 0.33 0.39 0.27 0.42 0.69 0.93 1.11 0.74 0.41 0.03 0.00 0.00 0.03 0.19 0.01
0.03 0.05 0.02 0.01 0.02 0.03 0.07 0.14 0.19 0.23 0.31 0.59 0.73 0.31 0.54 0.75 0.15 0.01 0.02 0.01 0.00 0.03 0.09 0.08 0.05 0.15 0.25 0.48 0.65 0.59 0.37 0.17 0.16 0.17 0.32 0.47 0.64 0.81 0.77 0.64 0.23 0.00 0.00 0.00 0.14 0.15 0.00
0.03 0.01 0.01 0.01 0.02 0.04 0.08 0.14 0.19 0.18 0.23 0.50 0.63 0.27 1.02 1.18 0.32 0.02 0.01 0.01 0.03 0.10 0.14 0.11 0.20 0.27 0.40 0.43 0.51 0.43 0.39 0.23 0.13 0.08 0.13 0.31 0.53 0.58 0.52 0.37 0.13 0.01 0.00 0.00 0.00 0.00 0.00
0.01 0.01 0.01 0.01 0.02 0.03 0.07 0.11 0.11 0.13 0.20 0.35 0.58 0.35 1.05 1.59 0.82 0.06 0.01 0.01 0.01 0.05 0.05 0.09 0.16 0.15 0.19 0.30 0.24 0.27 0.20 0.16 0.13 0.12 0.05 0.09 0.25 0.42 0.45 0.28 0.03 0.00 0.00 0.01 0.01 0.00 0.00

GFSGBSN_prec_precacc12_216.txt.gz
Total_Precipitation_Accumulation
0.02 0.02 0.01 0.01 0.01 0.02 0.02 0.02 0.02 0.01 0.01 0.00 0.00 0.00 0.00 0.00 0.00 0.00 0.00 0.01 0.01 0.01 0.01 0.01 0.00 0.00 0.00 0.00 0.00 0.00 0.00 0.00 0.00 0.00 0.00 0.00 0.00 0.00 0.00 0.00 0.00 0.00 0.00 0.00 0.00 0.00 0.00
0.02 0.01 0.01 0.02 0.03 0.04 0.03 0.02 0.02 0.02 0.01 0.01 0.01 0.00 0.00 0.00 0.00 0.00 0.00 0.01 0.02 0.02 0.02 0.04 0.05 0.04 0.00 0.00 0.00 0.00 0.00 0.00 0.00 0.00 0.00 0.00 0.00 0.00 0.00 0.00 0.00 0.00 0.00 0.00 0.00 0.00 0.00
0.01 0.01 0.01 0.01 0.02 0.03 0.03 0.03 0.03 0.02 0.02 0.02 0.01 0.01 0.00 0.00 0.00 0.00 0.00 0.00 0.02 0.06 0.10 0.12 0.13 0.07 0.01 0.00 0.00 0.00 0.00 0.00 0.00 0.00 0.00 0.00 0.00 0.00 0.00 0.00 0.00 0.00 0.00 0.00 0.00 0.00 0.00
0.00 0.00 0.01 0.01 0.01 0.02 0.03 0.03 0.03 0.03 0.03 0.02 0.02 0.02 0.01 0.00 0.00 0.00 0.00 0.00 0.00 0.01 0.10 0.26 0.31 0.17 0.06 0.00 0.00 0.00 0.00 0.00 0.00 0.00 0.00 0.00 0.00 0.00 0.00 0.00 0.00 0.00 0.00 0.00 0.00 0.00 0.00
0.00 0.00 0.01 0.01 0.02 0.03 0.03 0.04 0.04 0.04 0.04 0.04 0.05 0.04 0.02 0.01 0.00 0.00 0.00 0.00 0.00 0.01 0.08 0.25 0.39 0.28 0.06 0.00 0.00 0.00 0.00 0.00 0.00 0.00 0.00 0.00 0.00 0.00 0.00 0.00 0.00 0.00 0.00 0.00 0.00 0.00 0.00
0.00 0.00 0.01 0.01 0.02 0.03 0.03 0.03 0.04 0.06 0.06 0.06 0.07 0.06 0.03 0.02 0.00 0.00 0.00 0.00 0.01 0.01 0.07 0.41 0.43 0.18 0.02 0.00 0.00 0.00 0.00 0.00 0.00 0.00 0.00 0.00 0.00 0.00 0.00 0.00 0.00 0.00 0.00 0.00 0.00 0.00 0.00
0.00 0.00 0.02 0.02 0.03 0.05 0.06 0.08 0.12 0.12 0.10 0.09 0.09 0.06 0.04 0.04 0.01 0.00 0.00 0.01 0.01 0.02 0.07 0.11 0.14 0.05 0.00 0.00 0.00 0.00 0.00 0.00 0.00 0.00 0.00 0.00 0.00 0.00 0.00 0.00 0.00 0.00 0.00 0.00 0.00 0.00 0.00
0.01 0.01 0.02 0.03 0.04 0.06 0.07 0.12 0.14 0.14 0.10 0.09 0.11 0.11 0.08 0.04 0.00 0.00 0.00 0.01 0.03 0.03 0.04 0.02 0.00 0.00 0.00 0.00 0.00 0.00 0.00 0.00 0.00 0.00 0.00 0.00 0.00 0.00 0.00 0.00 0.00 0.00 0.00 0.00 0.00 0.00 0.00
0.02 0.02 0.02 0.02 0.03 0.07 0.13 0.16 0.17 0.14 0.10 0.11 0.16 0.16 0.10 0.04 0.00 0.00 0.00 0.00 0.01 0.04 0.11 0.03 0.01 0.01 0.00 0.00 0.00 0.00 0.00 0.00 0.00 0.00 0.00 0.00 0.00 0.00 0.00 0.00 0.00 0.00 0.00 0.00 0.00 0.00 0.00
0.02 0.01 0.01 0.02 0.10 0.14 0.13 0.13 0.15 0.09 0.07 0.09 0.13 0.22 0.12 0.03 0.02 0.01 0.03 0.01 0.00 0.10 0.11 0.03 0.02 0.02 0.00 0.00 0.00 0.00 0.00 0.00 0.00 0.00 0.00 0.00 0.00 0.00 0.00 0.00 0.00 0.00 0.00 0.00 0.00 0.00 0.00
0.02 0.02 0.05 0.09 0.12 0.10 0.07 0.05 0.08 0.09 0.08 0.08 0.08 0.08 0.06 0.04 0.06 0.06 0.08 0.01 0.03 0.31 0.21 0.01 0.00 0.00 0.00 0.01 0.00 0.00 0.00 0.00 0.00 0.00 0.00 0.00 0.00 0.00 0.00 0.00 0.00 0.00 0.00 0.00 0.00 0.00 0.00
0.04 0.06 0.11 0.14 0.08 0.07 0.07 0.07 0.07 0.08 0.08 0.12 0.08 0.03 0.03 0.02 0.01 0.00 0.00 0.00 0.13 0.42 0.31 0.03 0.01 0.01 0.01 0.00 0.00 0.00 0.00 0.00 0.00 0.00 0.00 0.00 0.00 0.00 0.00 0.00 0.00 0.00 0.00 0.00 0.00 0.00 0.00
0.02 0.05 0.11 0.11 0.13 0.19 0.15 0.13 0.10 0.08 0.11 0.10 0.07 0.05 0.03 0.02 0.05 0.03 0.01 0.08 0.18 0.36 0.12 0.04 0.01 0.01 0.01 0.01 0.00 0.00 0.01 0.01 0.02 0.05 0.07 0.00 0.00 0.00 0.00 0.00 0.00 0.00 0.00 0.01 0.01 0.01 0.00
0.03 0.02 0.02 0.04 0.09 0.11 0.10 0.12 0.09 0.07 0.08 0.10 0.11 0.10 0.04 0.04 0.05 0.10 0.09 0.16 0.22 0.04 0.03 0.08 0.04 0.05 0.05 0.03 0.01 0.01 0.01 0.02 0.03 0.01 0.01 0.00 0.00 0.00 0.00 0.00 0.00 0.00 0.00 0.01 0.03 0.01 0.00
0.04 0.04 0.02 0.02 0.03 0.02 0.09 0.13 0.08 0.09 0.13 0.13 0.12 0.09 0.11 0.07 0.13 0.18 0.17 0.22 0.10 0.01 0.00 0.00 0.04 0.17 0.19 0.10 0.05 0.05 0.03 0.01 0.02 0.03 0.02 0.00 0.00 0.00 0.00 0.00 0.00 0.00 0.00 0.00 0.01 0.01 0.03
0.04 0.03 0.01 0.00 0.01 0.03 0.02 0.06 0.16 0.17 0.15 0.17 0.13 0.14 0.06 0.07 0.20 0.23 0.26 0.13 0.02 0.00 0.01 0.04 0.12 0.14 0.16 0.17 0.25 0.23 0.19 0.06 0.01 0.00 0.02 0.01 0.02 0.00 0.00 0.00 0.00 0.00 0.00 0.01 0.03 0.11 0.06
0.04 0.04 0.03 0.02 0.01 0.01 0.00 0.00 0.10 0.25 0.16 0.21 0.17 0.17 0.09 0.13 0.18 0.23 0.14 0.02 0.01 0.00 0.00 0.06 0.08 0.18 0.13 0.19 0.43 0.48 0.35 0.16 0.07 0.02 0.01 0.04 0.08 0.03 0.01 0.00 0.00 0.00 0.00 0.00 0.03 0.04 0.04
0.04 0.04 0.04 0.03 0.03 0.01 0.01 0.00 0.01 0.13 0.27 0.29 0.26 0.20 0.21 0.16 0.15 0.10 0.03 0.01 0.01 0.00 0.00 0.02 0.07 0.08 0.15 0.19 0.27 0.39 0.45 0.31 0.25 0.12 0.06 0.05 0.18 0.12 0.01 0.00 0.00 0.01 0.00 0.01 0.08 0.10 0.05
0.06 0.04 0.04 0.05 0.05 0.04 0.04 0.03 0.08 0.11 0.24 0.29 0.26 0.17 0.17 0.31 0.16 0.08 0.04 0.02 0.02 0.01 0.00 0.00 0.03 0.08 0.10 0.12 0.45 0.26 0.15 0.19 0.25 0.36 0.35 0.24 0.34 0.30 0.15 0.10 0.05 0.05 0.02 0.01 0.02 0.04 0.03
0.04 0.03 0.04 0.05 0.05 0.05 0.06 0.08 0.10 0.12 0.23 0.35 0.22 0.18 0.16 0.23 0.11 0.10 0.12 0.09 0.03 0.00 0.01 0.00 0.00 0.00 0.05 0.13 0.20 0.29 0.15 0.11 0.04 0.14 0.22 0.46 0.30 0.25 0.14 0.08 0.04 0.02 0.02 0.02 0.07 0.16 0.07
0.04 0.04 0.05 0.07 0.06 0.04 0.04 0.06 0.09 0.17 0.33 0.42 0.28 0.13 0.10 0.11 0.08 0.04 0.08 0.09 0.06 0.04 0.05 0.04 0.06 0.04 0.04 0.08 0.17 0.17 0.08 0.03 0.02 0.04 0.13 0.45 0.44 0.19 0.09 0.01 0.00 0.00 0.00 0.01 0.06 0.05 0.17
0.02 0.03 0.05 0.05 0.02 0.01 0.01 0.05 0.11 0.17 0.42 0.40 0.22 0.10 0.09 0.08 0.08 0.11 0.10 0.07 0.04 0.02 0.06 0.04 0.08 0.05 0.06 0.07 0.08 0.22 0.22 0.13 0.11 0.07 0.23 0.47 0.53 0.16 0.12 0.01 0.02 0.05 0.02 0.02 0.02 0.01 0.03
0.01 0.03 0.03 0.02 0.01 0.01 0.02 0.05 0.08 0.15 0.39 0.21 0.09 0.07 0.22 0.18 0.11 0.13 0.13 0.11 0.06 0.05 0.03 0.02 0.04 0.09 0.08 0.04 0.05 0.07 0.18 0.29 0.28 0.20 0.21 0.36 0.51 0.41 0.34 0.04 0.10 0.24 0.09 0.01 0.02 0.00 0.01
0.04 0.02 0.01 0.04 0.05 0.06 0.08 0.06 0.05 0.13 0.33 0.21 0.08 0.11 0.23 0.20 0.08 0.06 0.04 0.07 0.06 0.07 0.06 0.04 0.05 0.07 0.01 0.01 0.07 0.08 0.13 0.24 0.25 0.29 0.20 0.32 0.33 0.53 0.45 0.13 0.46 0.44 0.04 0.00 0.00 0.00 0.00
0.01 0.01 0.04 0.07 0.09 0.09 0.08 0.09 0.12 0.16 0.31 0.28 0.22 0.17 0.22 0.19 0.03 0.02 0.02 0.02 0.02 0.01 0.02 0.02 0.01 0.01 0.01 0.16 0.34 0.22 0.08 0.18 0.29 0.18 0.17 0.23 0.29 0.55 0.44 0.34 0.39 0.08 0.00 0.00 0.01 0.00 0.00
0.01 0.02 0.03 0.02 0.01 0.01 0.02 0.03 0.05 0.08 0.19 0.27 0.23 0.21 0.34 0.54 0.13 0.01 0.02 0.02 0.04 0.05 0.03 0.00 0.00 0.01 0.08 0.36 0.39 0.27 0.11 0.12 0.16 0.30 0.13 0.15 0.18 0.32 0.47 0.42 0.33 0.03 0.00 0.00 0.03 0.20 0.01
0.01 0.01 0.00 0.00 0.01 0.01 0.02 0.02 0.02 0.04 0.10 0.24 0.24 0.19 0.42 0.73 0.14 0.02 0.03 0.03 0.03 0.08 0.14 0.03 0.02 0.06 0.14 0.51 0.45 0.27 0.13 0.11 0.13 0.15 0.30 0.39 0.45 0.51 0.32 0.36 0.16 0.00 0.00 0.01 0.20 0.22 0.00
0.00 0.00 0.00 0.00 0.00 0.01 0.01 0.01 0.01 0.03 0.07 0.27 0.30 0.16 0.67 1.01 0.35 0.02 0.01 0.02 0.03 0.15 0.29 0.06 0.27 0.27 0.30 0.36 0.23 0.17 0.15 0.09 0.12 0.07 0.14 0.36 0.62 0.61 0.44 0.37 0.16 0.01 0.01 0.06 0.05 0.01 0.01
0.00 0.00 0.00 0.00 0.00 0.00 0.00 0.00 0.00 0.02 0.04 0.27 0.45 0.14 0.72 1.42 0.92 0.07 0.00 0.00 0.01 0.09 0.16 0.31 0.32 0.15 0.16 0.21 0.12 0.08 0.07 0.08 0.08 0.10 0.06 0.12 0.33 0.61 0.65 0.43 0.10 0.01 0.02 0.06 0.11 0.12 0.10